Wattisham, United Kingdom

1:26 AM BST on April 24, 2017 (GMT +0100)
Wattisham Army

Weather History for EGUW - October, 2011

Change the Weather History Date:

Sunday, October 2, 2011

  Actual Average Record
Temperature  
Mean Temperature 68 °F -  
Max Temperature 82 °F - - ()
Min Temperature 55 °F - - ()
Cooling Degree Days 4    
Growing Degree Days 18 (Base 50)    
Moisture  
Dew Point 50 °F    
Average Humidity 51    
Maximum Humidity 88    
Minimum Humidity 18    
Precipitation  
Precipitation 0.00 in - - ()
Sea Level Pressure  
Sea Level Pressure 30.22 in    
Wind  
Wind Speed 7 mph ()    
Max Wind Speed 14 mph    
Max Gust Speed -    
Visibility 6.8 miles    
Events      
T = Trace of Precipitation, MM = Missing Value Source: Averaged Metar Reports

Daily Weather History Graph

Daily Weather History Graph

Search for Another Location

Airport or City:

Trip Planner

Search our weather history database for the weather conditions in past years. The results will help you decide how hot, cold, wet, or windy it might be!

Date:

Astronomy

Oct. 02, 2011 Rise Set
Actual Time 6:58 AM BST 6:32 PM BST
Civil Twilight 6:24 AM BST 7:05 PM BST
Nautical Twilight 5:44 AM BST 7:45 PM BST
Astronomical Twilight 5:04 AM BST 8:25 PM BST
Moon 1:35 PM BST (10/2) 9:30 PM BST (10/2)
Length of Visible Light 12h 41m
Length of Day
11h 34m
Waxing Crescent, 32% of the Moon is Illuminated
Oct 2
Waxing Crescent
Oct 4
First Quarter
Oct 12
Full
Oct 20
Last Quarter
Oct 26
New

Hourly Weather History & Observations

Time (BST) Temp. Dew Point Humidity Pressure Visibility Wind Dir Wind Speed Gust Speed Precip Events Conditions
12:50 AM 61 °F 55 °F 75% 30.29 in 6 mi SSW 5.8 mph - -   Light Haze
12:50 AM 60.8 °F 55.4 °F 82% 30.27 in 5.6 mi SSW 5.8 mph - N/A   Haze
2:50 AM 57.2 °F 53.6 °F 88% 30.27 in 3.7 mi SSW 5.8 mph - N/A   Haze
4:50 AM 57.2 °F 50.0 °F 77% 30.27 in 6.2 mi SSW 4.6 mph - N/A   Unknown
5:50 AM 60.8 °F 50.0 °F 68% 30.24 in 6.2 mi SSW 6.9 mph - N/A   Unknown
6:50 AM 56 °F 49 °F 72% 30.27 in 10 mi SSW 4.6 mph - -  
7:50 AM 62.6 °F 50.0 °F 63% 30.27 in 6.2 mi SSW 4.6 mph - N/A   Unknown
8:50 AM 66.2 °F 50.0 °F 56% 30.27 in 6.2 mi SSW 6.9 mph - N/A   Unknown
9:50 AM 68 °F 52 °F 47% 30.27 in 17 mi SW 8.1 mph - -  
9:50 AM 68.0 °F 51.8 °F 56% 30.27 in 6.2 mi SW 8.1 mph - N/A   Unknown
11:50 AM 78.8 °F 53.6 °F 42% 30.24 in 6.2 mi SSW 9.2 mph - N/A   Unknown
12:50 PM 81 °F 50 °F 23% 30.23 in 25 mi SSW 11.5 mph - -  
12:50 PM 80.6 °F 50.0 °F 34% 30.21 in 6.2 mi SSW 11.5 mph - N/A   Unknown
2:50 PM 82.4 °F 44.6 °F 26% 30.18 in 6.2 mi SSW 13.8 mph - N/A   Unknown
3:50 PM 82 °F 45 °F 18% 30.19 in 25 mi SW 13.8 mph - -  
3:50 PM 82.4 °F 44.6 °F 26% 30.18 in 6.2 mi SW 13.8 mph - N/A   Unknown
4:50 PM 80.6 °F 46.4 °F 30% 30.18 in 6.2 mi SW 12.7 mph - N/A   Unknown
6:50 PM 73 °F 48 °F 30% 30.18 in 28 mi South 5.8 mph - -  
6:50 PM 73.4 °F 48.2 °F 41% 30.18 in 6.2 mi South 5.8 mph - N/A   Unknown
7:50 PM 68.0 °F 48.2 °F 49% 30.18 in 6.2 mi South 6.9 mph - N/A   Unknown
8:50 PM 66.2 °F 48.2 °F 52% 30.18 in 6.2 mi SSW 5.8 mph - N/A   Unknown
9:50 PM 64 °F 50 °F 49% 30.18 in 22 mi SW 6.9 mph - -  
9:50 PM 64.4 °F 50.0 °F 59% 30.15 in 6.2 mi SW 6.9 mph - N/A   Unknown
10:50 PM 64.4 °F 50.0 °F 59% 30.15 in - SSW 5.8 mph - N/A   Clear
11:50 PM 64.4 °F 50.0 °F 59% 30.15 in - SSW 8.1 mph - N/A   Clear